[[{"header":{"parameterUnit":"m.s-1","parameterCategory":1,"la1":30.2991,"la2":30.254,"lo1":-89.0895,"lo2":-89.0444,"dy":0.0017,"dx":0.0017,"nx":28,"ny":28,"refTime":"2024-04-07T09:00:00:Z","depth":0,"parameterNumber":2,"parameterNumberName":"U-component_of_WINDS"},"data":[0,0,0,0,0,0,0,0,0,0,0,0,0,0,0,0,0,0,0,0,0,0,0,0,0,0,0,0,0,0,0,0,0,0,0,0,0,0,0,0,0,0,0,0,0,0,0,0,0,0,0,0,0,0,0,0,0,0,-5.6301,-5.6302,0,-5.6414,-5.6416,-5.6417,-5.6416,-5.6414,-5.6413,-5.6411,-5.6522,-5.6527,-5.6531,0,0,0,0,0,0,0,0,0,0,0,0,0,-5.6079,-5.6083,-5.6301,-5.6302,-5.6304,-5.6414,-5.6416,-5.6417,-5.6416,-5.6414,-5.6412,-5.641,-5.6521,-5.6526,-5.6531,0,0,0,0,0,0,0,0,0,0,0,0,0,-5.6182,-5.6084,-5.6301,-5.6316,-5.6319,-5.6414,-5.6416,-5.6418,-5.6416,-5.6414,-5.6412,-5.641,-5.6519,-5.6525,-5.6532,-5.6617,0,0,-5.6552,-5.6555,0,0,0,0,0,0,0,0,-5.6176,-5.619,-5.6313,-5.6315,-5.6319,-5.6399,-5.6378,-5.6484,-5.6417,-5.6379,-5.6411,-5.6409,-5.6483,-5.6492,-5.6518,-5.6622,-5.6627,-5.6552,-5.6556,-5.6559,-5.6561,0,0,0,0,0,0,0,-5.6169,-5.6185,-5.6346,-5.6314,-5.6318,-5.6316,-5.6329,-5.6398,-5.6442,-5.6382,-5.6382,-5.6396,-5.6484,-5.6512,-5.6521,-5.6629,-5.6552,-5.6558,-5.6562,-5.6565,-5.6807,-5.681,0,0,0,0,0,0,-5.6159,-5.6179,-5.6342,-5.6349,-5.624,-5.6322,-5.6336,-5.6375,-5.6441,-5.6449,-5.6398,-5.6396,-5.6502,-5.6513,-5.6525,-5.6627,-5.6559,-5.6565,-5.6569,-5.6805,-5.6808,-5.681,0,0,0,0,0,0,-5.6154,-5.6174,-5.6337,-5.6264,-5.6285,-5.6329,-5.6372,-5.6378,-5.6406,-5.6453,-5.646,-5.6419,-5.65,-5.6515,-5.6594,-5.6631,-5.6568,-5.6574,-5.6802,-5.6806,-5.6809,-5.6833,0,0,0,0,0,0,-5.6148,-5.6172,-5.6205,-5.6265,-5.6289,-5.6406,-5.6375,-5.6382,-5.6418,-5.6416,-5.6475,-5.6482,-5.65,-5.6584,-5.6601,-5.6639,-5.6579,-5.6798,-5.6803,-5.6808,-5.6829,-5.6837,-5.6844,0,0,0,0,0,-5.614,-5.6207,-5.6207,-5.6227,-5.6332,-5.6408,-5.6422,-5.6442,-5.6421,-5.6455,-5.6485,-5.648,-5.6625,-5.6593,-5.6611,-5.6651,-5.6796,-5.6802,-5.6808,-5.6826,-5.6836,-5.6844,0,0,0,0,0,0,-5.6148,-5.6215,-5.6216,-5.6304,-5.6351,-5.6408,-5.6451,-5.6453,-5.6505,-5.65,-5.6522,-5.6536,-5.6614,-5.6641,-5.6604,-5.6737,-5.6708,-5.6717,-5.6715,-5.6725,-5.6733,-5.6723,-5.6585,0,0,0,0,0,-5.6161,-5.6219,-5.6274,-5.6346,-5.637,-5.6407,-5.6441,-5.6453,-5.6501,-5.652,-5.6556,-5.6602,-5.6657,-5.6693,-5.6747,-5.6835,-5.6846,-5.6871,-5.6879,-5.6885,-5.6892,-5.6938,-5.6949,-5.6829,-5.6829,-5.6829,0,0,-5.6186,-5.623,-5.6265,-5.6349,-5.6387,-5.6444,-5.6423,-5.6485,-5.6527,-5.6529,-5.6605,-5.6634,-5.6686,-5.6769,-5.6807,-5.6794,-5.6928,-5.6892,-5.6897,-5.69,-5.6945,-5.6956,-5.6967,-5.6833,-5.6832,-5.6832,0,0,-5.6262,-5.6302,-5.6366,-5.6405,-5.6463,-5.6487,-5.6503,-5.656,-5.6579,-5.6657,-5.6659,-5.671,-5.6806,-5.6843,-5.6874,-5.6966,-5.6963,-5.6983,-5.7021,-5.7066,-5.7075,-5.7084,-5.7114,-5.7125,-5.6991,-5.6991,-5.6991,0,-5.6286,-5.6374,-5.6399,-5.6462,-5.6498,-5.6505,-5.6569,-5.6605,-5.6676,-5.67,-5.6685,-5.6806,-5.6842,-5.6933,-5.6955,-5.6982,-5.6998,-5.6975,-5.7072,-5.7081,-5.7089,-5.7118,-5.713,-5.6993,-5.6992,-5.6992,-5.6992,0,-5.64,-5.6461,-5.6506,-5.6577,-5.6619,-5.6682,-5.6714,-5.6753,-5.6763,-5.6788,-5.6866,-5.6911,-5.6973,-5.6996,-5.7005,-5.7089,-5.7078,-5.7068,-5.7038,-5.7102,-5.7129,-5.7141,-5.6995,-5.6995,-5.6994,-5.6994,0,0,-5.648,-5.6566,-5.6581,-5.6613,-5.6679,-5.6726,-5.6789,-5.6852,-5.6884,-5.6934,-5.6986,-5.7068,-5.7059,-5.7095,-5.7109,-5.7149,-5.7216,-5.7133,-5.7135,-5.7144,-5.7307,-5.7312,-5.7325,-5.7216,-5.7218,-5.722,-5.7302,0,-5.6561,-5.6674,-5.6699,-5.6796,-5.6852,-5.686,-5.6915,-5.696,-5.6987,-5.7037,-5.7065,-5.7122,-5.7107,-5.7129,-5.7169,-5.7199,-5.7248,-5.7194,-5.7262,-5.7264,-5.7245,-5.734,-5.7346,-5.7421,-5.7313,-5.7315,-5.7317,0,-5.6669,-5.6723,-5.6826,-5.6884,-5.6908,-5.6957,-5.7016,-5.7066,-5.7117,-5.7133,-5.7174,-5.7184,-5.7248,-5.7219,-5.7307,-5.7269,-5.7299,-5.7318,-5.7322,-5.7326,-5.7291,-5.7343,-5.7445,-5.7455,-5.7334,-5.7333,-5.7331,0,-5.6713,-5.6812,-5.6887,-5.6914,-5.6984,-5.7018,-5.7049,-5.7098,-5.7134,-5.7186,-5.721,-5.7268,-5.7299,-5.7344,-5.7368,-5.7345,-5.7454,-5.7427,-5.7467,-5.7466,-5.7486,-5.7484,-5.7591,-5.7511,-5.7511,-5.7511,-5.751,0,-5.6798,-5.686,-5.6908,-5.6953,-5.7023,-5.705,-5.7118,-5.7148,-5.7192,-5.7242,-5.7254,-5.73,-5.7332,-5.7382,-5.7402,-5.7471,-5.7486,-5.7499,-5.7503,-5.7496,-5.7494,-5.7513,-5.7507,-5.7514,-5.7513,-5.7512,-5.7512,0,-5.6859,-5.6893,-5.6974,-5.7035,-5.7052,-5.71,-5.7151,-5.7194,-5.7222,-5.7285,-5.7301,-5.7344,-5.7404,-5.7434,-5.7509,-5.7522,-5.7599,-5.7601,-5.7582,-5.7582,-5.7619,-5.7614,-5.774,-5.7756,-5.7668,-5.7669,-5.767,0,-5.6909,-5.6957,-5.7023,-5.7059,-5.709,-5.7147,-5.7184,-5.7214,-5.7252,-5.7315,-5.735,-5.7412,-5.7462,-5.7558,-5.7594,-5.7651,-5.7653,-5.7693,-5.7661,-5.7652,-5.765,-5.7645,-5.7649,-5.7697,-5.7698,-5.7699,-5.7699,0,-5.6993,-5.7008,-5.7063,-5.7124,-5.7169,-5.7218,-5.7266,-5.7293,-5.7331,-5.7373,-5.7436,-5.7475,-5.7552,-5.7612,-5.7672,-5.7702,-5.7706,-5.771,-5.7721,-5.7713,-5.7699,-5.7704,-5.7594,-5.7706,-5.7705,-5.7705,-5.7704,-5.7704,-5.7048,-5.7091,-5.7144,-5.7204,-5.7244,-5.7289,-5.7333,-5.7367,-5.742,-5.7486,-5.7501,-5.7566,-5.7616,-5.7697,-5.7729,-5.778,-5.7771,-5.7789,-5.7793,-5.7796,-5.7796,-5.7694,-5.7792,-5.7791,-5.7791,-5.7791,-5.7791,0,-5.7131,-5.7166,-5.7222,-5.7289,-5.7336,-5.734,-5.7393,-5.7431,-5.749,-5.7537,-5.7587,-5.7658,-5.7717,-5.7759,-5.7818,-5.7851,-5.7854,-5.7865,-5.7861,-5.7867,-5.7802,-5.7785,-5.7861,-5.7861,-5.7861,-5.7861,-5.7861,-5.7861,-5.7179,-5.7251,-5.7273,-5.7364,-5.7399,-5.7464,-5.7494,-5.7535,-5.7573,-5.7653,-5.7702,-5.773,-5.7775,-5.7838,-5.7891,-5.7902,-5.7922,-5.7932,-5.7942,-5.788,-5.7872,-5.7865,-5.7848,-5.7937,-5.7937,-5.8003,-5.8004,-5.8004]},{"header":{"parameterUnit":"m.s-1","parameterCategory":1,"la1":30.2991,"la2":30.254,"lo1":-89.0895,"lo2":-89.0444,"dy":0.0017,"dx":0.0017,"nx":28,"ny":28,"refTime":"2024-04-07T09:00:00:Z","depth":0,"parameterNumber":3,"parameterNumberName":"V-component_of_WINDS"},"data":[0,0,0,0,0,0,0,0,0,0,0,0,0,0,0,0,0,0,0,0,0,0,0,0,0,0,0,0,0,0,0,0,0,0,0,0,0,0,0,0,0,0,0,0,0,0,0,0,0,0,0,0,0,0,0,0,0,0,4.2296,4.2297,0,4.2378,4.2379,4.238,4.2391,4.239,4.239,4.2389,4.2471,4.2474,4.2477,0,0,0,0,0,0,0,0,0,0,0,0,0,4.2151,4.2154,4.2296,4.2297,4.2298,4.2378,4.2379,4.238,4.2391,4.239,4.2389,4.2389,4.247,4.2473,4.2477,0,0,0,0,0,0,0,0,0,0,0,0,0,4.2222,4.2155,4.2296,4.2314,4.2316,4.2377,4.2379,4.238,4.2391,4.239,4.2389,4.2388,4.2469,4.2473,4.2477,4.2527,0,0,4.2491,4.2493,0,0,0,0,0,0,0,0,4.2218,4.2227,4.231,4.2312,4.2315,4.2373,4.2358,4.2429,4.2392,4.2363,4.2389,4.2388,4.2439,4.2446,4.2464,4.253,4.2534,4.2491,4.2494,4.2496,4.2497,0,0,0,0,0,0,0,4.2213,4.2224,4.2328,4.2311,4.2314,4.2318,4.2326,4.2371,4.2406,4.2365,4.2366,4.2376,4.244,4.2459,4.2466,4.2535,4.2491,4.2495,4.2497,4.2499,4.2651,4.2652,0,0,0,0,0,0,4.2205,4.2219,4.2326,4.2331,4.2263,4.2321,4.2331,4.2356,4.2406,4.2412,4.2377,4.2376,4.2453,4.2461,4.2469,4.2532,4.2495,4.25,4.2502,4.2649,4.2651,4.2652,0,0,0,0,0,0,4.2202,4.2214,4.2323,4.2276,4.229,4.2325,4.2353,4.2358,4.2377,4.2415,4.2421,4.239,4.2452,4.2463,4.2513,4.2535,4.2502,4.2505,4.2647,4.265,4.2652,4.2658,0,0,0,0,0,0,4.2197,4.2213,4.2232,4.2276,4.2292,4.2365,4.2354,4.236,4.2384,4.2384,4.2428,4.2435,4.2452,4.2507,4.2517,4.2541,4.2509,4.2646,4.2648,4.2651,4.2656,4.266,4.2664,0,0,0,0,0,4.2192,4.2229,4.2232,4.2245,4.2316,4.2366,4.2376,4.2395,4.2386,4.2406,4.2431,4.2433,4.2531,4.2512,4.2524,4.2549,4.2644,4.2648,4.2651,4.2655,4.266,4.2664,0,0,0,0,0,0,4.2185,4.2235,4.2239,4.2291,4.2325,4.2368,4.2393,4.24,4.2436,4.2434,4.2457,4.2467,4.2517,4.2538,4.2515,4.2601,4.2587,4.2593,4.2586,4.2591,4.2594,4.2589,4.2512,0,0,0,0,0,4.219,4.2227,4.2268,4.231,4.2327,4.2357,4.238,4.2393,4.2428,4.2442,4.247,4.2504,4.2543,4.2568,4.2605,4.2659,4.267,4.2683,4.2686,4.2689,4.2694,4.2728,4.2735,4.2663,4.2663,4.2663,0,0,4.2199,4.2231,4.2253,4.231,4.2337,4.2376,4.2369,4.2409,4.2438,4.2448,4.2498,4.252,4.256,4.2613,4.2638,4.2632,4.2717,4.2693,4.2696,4.2699,4.2732,4.2739,4.2745,4.2665,4.2665,4.2664,0,0,4.2237,4.2264,4.2304,4.2332,4.2374,4.2395,4.2404,4.2448,4.2463,4.2514,4.2523,4.2558,4.2624,4.2653,4.2676,4.2728,4.2733,4.274,4.276,4.2792,4.2798,4.2803,4.2825,4.2832,4.2744,4.2744,4.2744,0,4.2244,4.2302,4.2323,4.2364,4.239,4.2402,4.2443,4.2469,4.2521,4.2539,4.2532,4.2617,4.2644,4.2706,4.2719,4.2737,4.275,4.2735,4.2796,4.2801,4.2806,4.2827,4.2834,4.2745,4.2745,4.2745,4.2745,0,4.231,4.235,4.2377,4.2429,4.2458,4.2498,4.2527,4.2553,4.2564,4.2586,4.2639,4.2673,4.2719,4.2734,4.2744,4.2799,4.2794,4.2791,4.2777,4.2813,4.2833,4.2841,4.2746,4.2746,4.2746,4.2746,0,0,4.2344,4.2409,4.2419,4.2444,4.2493,4.2525,4.2567,4.2613,4.2637,4.2673,4.271,4.2767,4.2765,4.2792,4.2805,4.2833,4.2877,4.2827,4.2829,4.2837,4.2942,4.2946,4.2954,4.288,4.2881,4.2883,4.294,0,4.2389,4.2466,4.2487,4.2552,4.2591,4.2605,4.2642,4.2676,4.2698,4.2735,4.2759,4.28,4.2793,4.281,4.2838,4.2865,4.2898,4.2861,4.2916,4.2918,4.2908,4.2964,4.2968,4.302,4.2947,4.2949,4.2949,0,4.2452,4.2491,4.2561,4.2607,4.2625,4.2658,4.2704,4.2738,4.2778,4.2793,4.2824,4.2836,4.2882,4.2866,4.2931,4.2905,4.2929,4.2946,4.2949,4.2956,4.2937,4.2975,4.3037,4.3045,4.2961,4.296,4.296,0,4.2474,4.2543,4.2595,4.2616,4.267,4.2694,4.2718,4.2757,4.2785,4.2825,4.2843,4.2887,4.2912,4.2947,4.2971,4.2957,4.3035,4.302,4.305,4.305,4.3067,4.3066,4.3135,4.3079,4.3079,4.3079,4.3078,0,4.2523,4.2565,4.2606,4.2638,4.2686,4.2711,4.2759,4.2783,4.2819,4.2856,4.2869,4.2905,4.2934,4.2973,4.2992,4.3045,4.3055,4.3069,4.3074,4.3069,4.3068,4.3086,4.3084,4.3081,4.308,4.308,4.308,0,4.2555,4.2584,4.2641,4.269,4.2703,4.2737,4.2779,4.2811,4.2834,4.2882,4.2894,4.2931,4.2978,4.3006,4.3065,4.3078,4.3138,4.314,4.3125,4.3127,4.3156,4.3154,4.3242,4.3256,4.3188,4.3189,4.3189,0,4.2586,4.2619,4.2672,4.2699,4.2724,4.2766,4.2795,4.2821,4.2851,4.2901,4.2927,4.2976,4.3016,4.3092,4.3124,4.317,4.3175,4.3203,4.3182,4.3177,4.3179,4.3177,4.3182,4.3206,4.3207,4.3207,4.3208,0,4.2638,4.2651,4.2692,4.274,4.2774,4.2812,4.285,4.2871,4.2904,4.2937,4.2986,4.3018,4.308,4.3129,4.3179,4.3204,4.3213,4.3214,4.3224,4.322,4.3211,4.3219,4.3136,4.3212,4.3212,4.3211,4.3211,4.3211,4.2672,4.2704,4.2747,4.2793,4.2825,4.2861,4.2894,4.2923,4.2965,4.3018,4.3031,4.3084,4.3126,4.3193,4.322,4.3263,4.3258,4.3271,4.3275,4.3279,4.3281,4.3203,4.3271,4.3271,4.3271,4.3271,4.3271,0,4.2727,4.2756,4.2799,4.2852,4.289,4.2895,4.2938,4.2969,4.3015,4.3054,4.3094,4.3153,4.3201,4.3238,4.3287,4.3314,4.332,4.3327,4.3326,4.3333,4.3281,4.3269,4.3322,4.3322,4.3322,4.3322,4.3322,4.3322,4.276,4.2815,4.2834,4.2905,4.2934,4.2987,4.3011,4.3045,4.3077,4.3142,4.3182,4.3206,4.3245,4.3298,4.3344,4.3353,4.3372,4.3379,4.339,4.3341,4.3336,4.333,4.3319,4.3382,4.3382,4.3438,4.3439,4.3439]}]]